890  
ASUS45 KTFX 180010  
RWRMT  
MONTANA REGIONAL WEATHER ROUNDUP  
NATIONAL WEATHER SERVICE GREAT FALLS MT  
500 PM MST FRI NOV 17 2017  
 
NOTE: "FAIR" INDICATES FEW OR NO CLOUDS BELOW 12000 FEET WITH NO  
SIGNIFICANT WEATHER AND/OR S TO VISIBILITY
.  
 
MTZ001>007-043-180100-  
WEST OF THE DIVIDE  
 
CITY SKY/WX TMP DP RH WIND PRES REMARKS
 
KALISPELL CLOUDY 37 27 67 S6 29.93R  
MISSOULA MOCLDY 37 24 59 NW13 29.99R WCI 29  
BUTTE MOCLDY 29 15 56 W12 29.91R WCI 19  
MULLAN PASS SNOW 22 20 92 MISG 29.93R VSB 1/2  
ANACONDA N/A 30 18 59 SW13 29.95R WCI 20  
EUREKA N/A 37 21 52 MISG 29.92R  
HAMILTON N/A 37 19 48 S6 30.00R  
LIBBY N/A 37 28 70 NE3 29.95R  
PLAINS N/A 39 26 60 S8 30.00R  
RONAN N/A 35 24 64 CALM 30.03R  

 
 
MTZ008-052>055-180100-  
SOUTHWEST MONTANA  
 
CITY SKY/WX TMP DP RH WIND PRES REMARKS
 
BOZEMAN FAIR 29 21 72 NW6 29.91R WCI 23  
DILLON FAIR 30 11 45 W16 29.94R WCI 19  
W YELLOWSTONE FAIR 25 5 42 NW8G16 29.88R WCI 16  
ENNIS PTCLDY 32 12 43 NW13G20 29.96R WCI 22  

 
 
MTZ009-010-012-014-046-048-049-054-180100-  
EAST SLOPES AND CENTRAL MONTANA  
 
CITY SKY/WX TMP DP RH WIND PRES REMARKS
 
CUT BANK FAIR 30 22 72 W20 29.73R WCI 17  
GREAT FALLS FAIR 34 17 50 W17 29.79R WCI 23  
MALMSTROM AFB FAIR 37 17 42 W17G26 29.79R WCI 28  
HELENA FAIR 36 19 50 W29G35 29.86R WCI 23  
BOWMANS CRNR FAIR 30 17 57 SW16 29.78R WCI 19  
CHOTEAU N/A 32 21 64 W15G22 29.76R WCI 22  
FAIRFIELD FAIR 32 19 57 W3 29.77R  
POWER FAIR 32 19 59 W16G22 29.77R WCI 21  

 
 
MTZ011-013-016-021-045-047-050-051-180100-  
NORTH CENTRAL MONTANA  
 
CITY SKY/WX TMP DP RH WIND PRES REMARKS
 
HAVRE FAIR 32 27 81 SW8 29.73R WCI 25  
LEWISTOWN FAIR 34 19 54 W12 29.76R WCI 25  
N BAR RANCH FAIR 36 12 38 NW20G25 29.77R WCI 25  
CHINOOK N/A 30 25 80 N7 29.73R WCI 23  
DENTON FAIR 38 18 45 W18G35 29.71R WCI 28  
GEYSER FAIR 35 17 47 W23G30 29.76R WCI 23  
GRASS RANGE FAIR 38 17 41 W17G29 29.72R WCI 29  
STANFORD FAIR 32 17 53 W15 29.76R WCI 21  
WINIFRED MOCLDY 38 18 45 W12G18 29.74R WCI 30  

 
 
MTZ017>020-022>027-061-062-180100-  
NORTHEAST MONTANA  
 
CITY SKY/WX TMP DP RH WIND PRES REMARKS
 
GLASGOW FAIR 32 23 69 W6 29.70R WCI 26  
GLENDIVE CLOUDY 39 24 55 N10 29.69R  
JORDAN N/A 34 26 72 NW8 29.71R WCI 27  
SIDNEY MOCLDY 33 25 72 N6 29.69R WCI 28  
WOLF POINT FAIR 36 24 62 SW6 29.70R WCI 31  
MALTA CLEAR 28 25 86 W3 29.71R  
PLENTYWOOD N/A 21 16 79 NE7 29.70R WCI 13  
POPLAR N/A 37 23 56 CALM 29.70R  
SCOBEY N/A 20 10 65 NE12 29.70R WCI 8  

 
 
MTZ028>42-056>058-180100-  
SOUTHCENTRAL AND SOUTHEAST MONTANA  
 
CITY SKY/WX TMP DP RH WIND PRES REMARKS
 
BAKER FAIR 35 31 85 SW9 29.68R WCI 28  
BILLINGS FAIR 38 19 46 W21G28 29.78R WCI 28  
LIVINGSTON MOCLDY 30 25 81 NW12 29.87R WCI 20  
MILES CITY FAIR 36 26 67 W8 29.71R WCI 30  
BIG TIMBER CLOUDY 28 25 86 NW26G44 29.88R FOG WCI 13  
FORSYTH N/A 41 21 45 W9 29.74R  
HARLOWTON FAIR 31 19 61 W23 29.78R WCI 17  
LAUREL N/A 36 21 55 W10 29.81R WCI 28  
ROUNDUP N/A 38 19 46 W9 29.70R WCI 31  

 
 
REGIONAL REPORTS...DAKOTAS  
 
CITY SKY/WX TMP DP RH WIND PRES REMARKS
 
WILLISTON FAIR 26 19 74 N7 29.70R WCI 18  
MINOT FAIR 18 12 77 CALM 29.71R  
DICKINSON FAIR 30 22 72 S6 29.66R WCI 24  
BEACH MOCLDY 36 32 87 W9 29.69R WCI 29  
CROSBY FAIR 14 10 85 N8 29.74R WCI 3  
TIOGA FAIR 25 21 86 CALM 29.69R  
WATFORD CITY FAIR 25 18 74 CALM 29.68R  
BISMARCK FAIR 31 24 75 NE3 29.73R  
GRAND FORKS MOCLDY 18 14 84 NW3 29.75R  
FARGO FAIR 28 19 69 NW9 29.73R WCI 19  
BUFFALO SD N/A 38 31 76 SW6 29.62R  
RAPID CITY CLOUDY 38 36 92 N7 29.69R  

 
 
REGIONAL REPORTS...WYOMING/IDAHO/WASHINGTON  
 
CITY SKY/WX TMP DP RH WIND PRES REMARKS
 
GILLETTE MOCLDY 34 31 88 W10 29.71R WCI 26  
SHERIDAN CLOUDY 35 31 85 NE7 29.77R WCI 29  
BUFFALO WY CLOUDY 32 29 88 NW8 29.75R WCI 25  
CODY FAIR 34 21 59 W10 29.81R WCI 26  
YELLOWSTONE LA N/A 17 12 80 VRB5 29.86R  
IDAHO FALLS MOCLDY 33 23 66 NW9 29.98R WCI 25  
SALMON FAIR 36 15 42 N5 30.02R  
BOISE FAIR 44 21 40 NW16G24 30.16R  
SPOKANE FAIR 41 28 60 SW21 30.03R  

 
 
REGIONAL REPORTS...ALBERTA  
 
CITY SKY/WX TMP DP RH WIND PRES REMARKS
 
EDMONTON CLEAR 3 -2 78 W3 29.81R  
CALGARY LGT SNOW 7 3 85 N7 29.76 WCI -5  
LETHBRIDGE CLEAR 9 5 85 NE6 29.79R WCI -1  
MEDICINE HAT MOCLDY 10 7 85 N3 29.83R  

 
 
REGIONAL REPORTS...SASKATCHEWAN  
 
CITY SKY/WX TMP DP RH WIND PRES REMARKS
 
SWIFT CURRENT PTCLDY 7 3 85 NW7 29.75R WCI -5  
REGINA MOCLDY 5 0 78 W8 29.77R WCI -8  
SASKATOON FLURRIES 10 3 72 W14 29.80R WCI -5  

 
 
 
CLICK HERE TO GO TO PREVIOUS BULLETINS.

The Nexlab MT Page Main Text Page